DELTA 1 DEB, 7039

Orbit data source: Space-Track

DELTA 1 DEB, 7039 is space debris in SSO originally from a launch on Tue, 06 Nov 1973 UTC launched from the Air Force Western Test Range (AFWTR). Debris objects in space refer to the collection of defunct objects orbiting the Earth. Examples of debris include non-operational satellites, rocket bodies, and fragments generated from explosions, collisions, or faulty payload assembly.

Loading next visibility...
Identifier
7039, 1973-086AF
Orbit
SSO
Country
Flag of USUS
Related business
Manufacturer
Unknown
Mission
Spacecraft
Bus & Motor
Unknown
Mass
Unknown
Launch date (UTC)
1973-11-06 (53 years ago)
Launch vehicle
Unknown
Launch site
Air Force Western Test Range (AFWTR)
Object type
Payload
Rocket body
Debris
Shape & HBR
Unknown shape, 0.1 m
Radar Cross Section
Medium (>0.1 m² and <1 m²)

Expand to show TLE details & history
Last TLE update: 21 hours ago

TLE from 21 hours ago
0 DELTA 1 DEB
1 07039U 73086AF  26206.47869653  .00000037  00000-0  55727-3 0  9996
2 07039 102.5471 210.2230 0128671 224.6052 302.9445 12.49615334401894
Epoch: 2026-07-25T11:29Z
TLE epoch observation values (Epoch: 2026-07-25T11:29:19.380Z)
Latitude
13.33596°
Longitude
-82.28891°
Altitude
1,413.937 km
Speed
7.179 km/s
True Right ascension
02h 12m 55s
True Declination
13° 15' 56"
Sunlit
Object was in daylight at epoch
Visualization orbit readout
Latitude
Unknown
Longitude
Unknown
Altitude
Unknown
Speed
Unknown
Apparent Right ascension
Unknown
Apparent Declination
Unknown
Sunlit
N/A
Visualization observer readout
Local Sidereal Time
21:19:19
Azimuth
Unknown
Elevation
Unknown
Doppler factor
Unknown
Orbital elements
Apogee altitude
1,564.601 km
Perigee altitude
1,362.798 km
Semi-major axis
7,841.836 km
Eccentricity
0.01287
Inclination
102.5471°
RAAN
210.223°
Arg. of periapsis
224.6052°
True anomaly
301.69632°
Mean anomaly
302.9445°
Eccentric anomaly
302.3215°
Mean motion
3.12548 °/min
Orbital period
115.18 mins
BSTAR
0.00055727
Loading maneuver chart data...
Computing Atmospheric mass density...
Loading historical data...
Loading historical data...
Loading historical data...
Loading historical data...
Loading historical data...
Loading historical data...
Loading historical data...

Documentation

Showing up to 5 results
|